EZY52RV LMML-EGCC

Flight info

Callsign EZY52RV
Flight time N/A
Altitude 38000
Route GZO M622 SOPIR DCT MABOX DCT ADEXI DCT ABESI DCT UTAVO DCT HOC DCT LUL DCT RLP DCT ROTSI DCT KOTUN DCT AMAXA DCT VESAN DCT RATUK DCT SOVAT L613 SANDY UN57 WELIN T420 ELVOS
Aircraft A20N/M-SDE2E3FGHIJ1RWXYZ/LB1G1

Departure

Time 2026-05-06 05:43
Airport Malta International Airport (LMML)

Arrival

Time N/A
Airport Manchester Airport (EGCC)
Time Latitude Longitude Altitude Speed Heading
2026-05-06 05:26 35.84961 14.49338 247 ft 0 kts 360°
2026-05-06 05:31 35.84953 14.49337 247 ft 2 kts
2026-05-06 05:31 35.84938 14.49337 247 ft 2 kts 358°
2026-05-06 05:31 35.84922 14.49337 248 ft 2 kts
2026-05-06 05:31 35.84913 14.49337 248 ft 2 kts 360°
2026-05-06 05:32 35.84898 14.49339 248 ft 2 kts 347°
2026-05-06 05:32 35.84884 14.49344 248 ft 2 kts 338°
2026-05-06 05:32 35.84875 14.49349 248 ft 2 kts 331°
2026-05-06 05:32 35.84857 14.49363 247 ft 1 kts 317°
2026-05-06 05:33 35.84853 14.49369 247 ft 0 kts 314°
2026-05-06 05:33 35.84852 14.49369 247 ft 0 kts 314°
2026-05-06 05:35 35.84856 14.49365 247 ft 1 kts 314°
2026-05-06 05:35 35.84865 14.49353 247 ft 2 kts 313°
2026-05-06 05:36 35.84878 14.49336 248 ft 3 kts 313°
2026-05-06 05:36 35.84896 14.49313 248 ft 4 kts 315°
2026-05-06 05:36 35.84919 14.49287 248 ft 4 kts 311°
2026-05-06 05:36 35.84935 14.49247 249 ft 5 kts 285°
2026-05-06 05:37 35.84935 14.49199 249 ft 5 kts 251°
2026-05-06 05:37 35.84910 14.49158 249 ft 6 kts 233°
2026-05-06 05:37 35.84906 14.49106 250 ft 6 kts 292°
2026-05-06 05:37 35.84933 14.49058 250 ft 7 kts 308°
2026-05-06 05:38 35.84953 14.49025 251 ft 7 kts 304°
2026-05-06 05:38 35.84991 14.48959 252 ft 7 kts 312°
2026-05-06 05:38 35.85025 14.48918 254 ft 6 kts 316°
2026-05-06 05:38 35.85058 14.48879 255 ft 7 kts 314°
2026-05-06 05:39 35.85098 14.48827 256 ft 9 kts 313°
2026-05-06 05:39 35.85132 14.48784 256 ft 11 kts 314°
2026-05-06 05:39 35.85212 14.48683 258 ft 13 kts 315°
2026-05-06 05:39 35.85283 14.48596 260 ft 15 kts 314°
2026-05-06 05:40 35.85334 14.48532 260 ft 15 kts 316°
2026-05-06 05:40 35.85439 14.48405 261 ft 15 kts 314°
2026-05-06 05:40 35.85518 14.48307 261 ft 14 kts 313°
2026-05-06 05:40 35.85580 14.48232 260 ft 10 kts 324°
2026-05-06 05:41 35.85640 14.48204 260 ft 9 kts 334°
2026-05-06 05:41 35.85660 14.48135 260 ft 8 kts 269°
2026-05-06 05:41 35.85660 14.48074 260 ft 5 kts 270°
2026-05-06 05:41 35.85663 14.48021 260 ft 6 kts 285°
2026-05-06 05:42 35.85677 14.47968 260 ft 6 kts 265°
2026-05-06 05:42 35.85648 14.47926 261 ft 6 kts 200°
2026-05-06 05:42 35.85606 14.47934 261 ft 6 kts 141°
2026-05-06 05:42 35.85567 14.47981 261 ft 18 kts 134°
2026-05-06 05:43 35.85291 14.48321 262 ft 92 kts 134°
2026-05-06 05:43 35.84684 14.49074 251 ft 151 kts 135°
2026-05-06 05:43 35.83860 14.50074 650 ft 166 kts 135°
2026-05-06 05:43 35.83005 14.51046 1422 ft 163 kts 148°
2026-05-06 05:44 35.81874 14.51256 2150 ft 167 kts 193°
2026-05-06 05:44 35.80820 14.50270 2662 ft 190 kts 234°
2026-05-06 05:44 35.80100 14.48711 3171 ft 207 kts 236°
2026-05-06 05:44 35.79287 14.47019 3643 ft 226 kts 236°
2026-05-06 05:45 35.78350 14.45108 4128 ft 249 kts 237°
2026-05-06 05:45 35.77343 14.43013 4774 ft 266 kts 243°
2026-05-06 05:45 35.76936 14.40535 5649 ft 275 kts 276°
2026-05-06 05:45 35.77677 14.38185 6625 ft 278 kts 308°
2026-05-06 05:46 35.79355 14.36579 7609 ft 280 kts 332°
2026-05-06 05:46 35.81269 14.35372 8532 ft 283 kts 332°
2026-05-06 05:46 35.83110 14.34193 9390 ft 286 kts 331°
2026-05-06 05:46 35.84892 14.33036 10208 ft 288 kts 331°
2026-05-06 05:47 35.86777 14.31801 10815 ft 300 kts 330°
2026-05-06 05:47 35.88757 14.30495 11459 ft 309 kts 330°
2026-05-06 05:47 35.90769 14.29164 12288 ft 311 kts 329°
2026-05-06 05:47 35.92841 14.27791 13105 ft 314 kts 329°
2026-05-06 05:48 35.94922 14.26410 13885 ft 318 kts 329°
2026-05-06 05:48 35.97036 14.25003 14663 ft 321 kts 329°
2026-05-06 05:48 35.99200 14.23564 15444 ft 324 kts 329°
2026-05-06 05:48 36.01430 14.22082 16149 ft 329 kts 329°
2026-05-06 05:49 36.03762 14.20427 16503 ft 345 kts 326°
2026-05-06 05:49 36.06101 14.18475 16859 ft 360 kts 323°
2026-05-06 05:49 36.08408 14.16439 17452 ft 366 kts 322°
2026-05-06 05:49 36.10719 14.14390 18136 ft 369 kts 322°
2026-05-06 05:50 36.12842 14.12505 18724 ft 373 kts 322°
2026-05-06 05:50 36.15154 14.10455 19330 ft 377 kts 322°
2026-05-06 05:50 36.17556 14.08325 19959 ft 380 kts 322°
2026-05-06 05:50 36.20050 14.06111 20594 ft 384 kts 322°
2026-05-06 05:51 36.22489 14.03944 21181 ft 388 kts 322°
2026-05-06 05:51 36.24788 14.01902 21727 ft 391 kts 322°
2026-05-06 05:51 36.27104 13.99841 22255 ft 395 kts 322°
2026-05-06 05:51 36.29657 13.97568 22823 ft 399 kts 322°
2026-05-06 05:52 36.32154 13.95342 23357 ft 403 kts 322°
2026-05-06 05:52 36.34671 13.93097 23914 ft 406 kts 322°
2026-05-06 05:52 36.37324 13.90728 24473 ft 410 kts 322°
2026-05-06 05:52 36.39924 13.88406 24991 ft 413 kts 322°
2026-05-06 05:53 36.42471 13.86126 25476 ft 416 kts 322°
2026-05-06 05:53 36.45074 13.83794 25933 ft 420 kts 322°
2026-05-06 05:53 36.47768 13.81381 26395 ft 424 kts 322°
2026-05-06 05:53 36.49594 13.79744 26698 ft 427 kts 322°
2026-05-06 05:54 36.53153 13.76554 27243 ft 432 kts 322°
2026-05-06 05:54 36.55938 13.74057 27677 ft 435 kts 322°
2026-05-06 05:54 36.58706 13.71574 28105 ft 437 kts 322°
2026-05-06 05:54 36.61440 13.69117 28470 ft 440 kts 322°
2026-05-06 05:55 36.64242 13.66597 28829 ft 443 kts 322°
2026-05-06 05:55 36.67068 13.64050 29190 ft 445 kts 322°
2026-05-06 05:55 36.69893 13.61505 29667 ft 444 kts 322°
2026-05-06 05:55 36.72583 13.59082 30162 ft 442 kts 322°
2026-05-06 05:56 36.75427 13.56513 30608 ft 440 kts 322°
2026-05-06 05:56 36.78239 13.53970 31009 ft 440 kts 321°
2026-05-06 05:56 36.80980 13.51488 31387 ft 439 kts 322°
2026-05-06 05:56 36.83730 13.48996 31760 ft 438 kts 322°
2026-05-06 05:57 36.86474 13.46508 32157 ft 436 kts 322°
2026-05-06 05:57 36.89202 13.44031 32543 ft 435 kts 322°
2026-05-06 05:57 36.91915 13.41569 32907 ft 433 kts 322°
2026-05-06 05:57 36.94662 13.39072 33258 ft 432 kts 321°
2026-05-06 05:58 36.97437 13.36548 33581 ft 432 kts 321°
2026-05-06 05:58 37.00046 13.34171 33879 ft 431 kts 321°
2026-05-06 05:58 37.02607 13.31836 34184 ft 431 kts 321°
2026-05-06 05:58 37.05209 13.29458 34484 ft 430 kts 321°
2026-05-06 05:59 37.07792 13.27100 34805 ft 429 kts 321°
2026-05-06 05:59 37.10338 13.24771 35109 ft 428 kts 321°
2026-05-06 05:59 37.12807 13.22514 35403 ft 427 kts 321°
2026-05-06 05:59 37.15324 13.20211 35717 ft 425 kts 321°
2026-05-06 06:00 37.20333 13.15624 36276 ft 423 kts 321°
2026-05-06 06:00 37.22918 13.13251 36128 ft 424 kts 320°
2026-05-06 06:00 37.25520 13.10861 36255 ft 425 kts 320°
2026-05-06 06:01 37.28193 13.08419 36458 ft 426 kts 321°
2026-05-06 06:01 37.30862 13.06201 36639 ft 428 kts 324°
2026-05-06 06:01 37.33814 13.04059 36850 ft 430 kts 328°
2026-05-06 06:01 37.36817 13.02188 37067 ft 432 kts 332°
2026-05-06 06:02 37.39862 13.00578 37220 ft 435 kts 335°
2026-05-06 06:02 37.42934 12.99224 37368 ft 437 kts 338°
2026-05-06 06:02 37.46195 12.97926 37488 ft 438 kts 339°
2026-05-06 06:02 37.49448 12.96653 37619 ft 439 kts 339°
2026-05-06 06:03 37.52527 12.95449 37744 ft 440 kts 339°
2026-05-06 06:03 37.55675 12.94214 37866 ft 440 kts 338°
2026-05-06 06:03 37.58861 12.92960 37979 ft 441 kts 338°
2026-05-06 06:03 37.62122 12.91673 37982 ft 442 kts 338°
2026-05-06 06:04 37.68345 12.89211 37979 ft 442 kts 338°
2026-05-06 06:04 37.74762 12.86668 37993 ft 442 kts 338°
2026-05-06 06:05 37.81144 12.84133 37990 ft 442 kts 338°
2026-05-06 06:05 37.87532 12.81590 37992 ft 442 kts 338°
2026-05-06 06:06 37.94031 12.79000 37996 ft 442 kts 338°
2026-05-06 06:06 38.00490 12.76420 38000 ft 442 kts 338°
2026-05-06 06:07 38.07124 12.73763 37993 ft 442 kts 339°
2026-05-06 06:07 38.13419 12.71243 37974 ft 442 kts 338°
2026-05-06 06:08 38.19841 12.68666 37975 ft 442 kts 338°
2026-05-06 06:08 38.26254 12.66086 37962 ft 442 kts 338°
2026-05-06 06:09 38.32876 12.63416 37971 ft 441 kts 338°
2026-05-06 06:09 38.39371 12.60794 37970 ft 441 kts 338°
2026-05-06 06:10 38.45953 12.58132 37971 ft 441 kts 338°
2026-05-06 06:10 38.52601 12.55436 37971 ft 442 kts 338°
2026-05-06 06:11 38.59152 12.52774 37971 ft 442 kts 338°
2026-05-06 06:11 38.65840 12.50053 37975 ft 442 kts 338°
2026-05-06 06:12 38.72314 12.47414 37975 ft 442 kts 338°
2026-05-06 06:12 38.79010 12.44680 37971 ft 441 kts 338°
2026-05-06 06:13 38.85486 12.42030 37965 ft 441 kts 338°
2026-05-06 06:13 38.92057 12.39335 37961 ft 442 kts 338°
2026-05-06 06:14 38.98569 12.36658 37961 ft 442 kts 338°
2026-05-06 06:14 39.04932 12.34038 37963 ft 442 kts 338°
2026-05-06 06:15 39.11370 12.31384 37962 ft 441 kts 338°
2026-05-06 06:15 39.17703 12.28768 37959 ft 441 kts 338°
2026-05-06 06:16 39.24323 12.26027 37962 ft 441 kts 338°
2026-05-06 06:16 39.30924 12.23289 37960 ft 441 kts 337°
2026-05-06 06:17 39.37597 12.20514 37958 ft 441 kts 337°
2026-05-06 06:17 39.44270 12.17733 37960 ft 441 kts 338°
2026-05-06 06:18 39.50938 12.14951 37969 ft 442 kts 337°
2026-05-06 06:18 39.57583 12.12174 37969 ft 441 kts 337°
2026-05-06 06:19 39.64205 12.09398 37957 ft 441 kts 337°
2026-05-06 06:19 39.70922 12.06577 37945 ft 441 kts 337°
2026-05-06 06:20 39.77411 12.03848 37946 ft 441 kts 337°
2026-05-06 06:20 39.84097 12.01027 37952 ft 441 kts 337°
2026-05-06 06:21 39.90676 11.98247 37955 ft 442 kts 337°
2026-05-06 06:21 39.97342 11.95428 37947 ft 441 kts 337°
2026-05-06 06:22 40.03953 11.92623 37952 ft 441 kts 337°
2026-05-06 06:22 40.10529 11.89827 37954 ft 441 kts 337°
2026-05-06 06:23 40.16448 11.87305 37957 ft 441 kts 337°
2026-05-06 06:23 40.22710 11.84633 37951 ft 441 kts 337°
2026-05-06 06:24 40.29409 11.81771 37954 ft 441 kts 337°
2026-05-06 06:24 40.35962 11.78963 37951 ft 441 kts 337°
2026-05-06 06:25 40.42659 11.76087 37959 ft 441 kts 337°
2026-05-06 06:26 40.52532 11.71838 37949 ft 441 kts 337°
2026-05-06 06:26 40.58978 11.69057 37945 ft 441 kts 337°
2026-05-06 06:27 40.65655 11.66169 37949 ft 440 kts 337°
2026-05-06 06:27 40.72211 11.63329 37944 ft 440 kts 337°
2026-05-06 06:28 40.78579 11.60563 37947 ft 440 kts 337°
2026-05-06 06:28 40.84667 11.57914 37948 ft 440 kts 337°
2026-05-06 06:29 40.90754 11.55262 37945 ft 440 kts 337°
2026-05-06 06:29 40.97024 11.52524 37942 ft 440 kts 337°
2026-05-06 06:30 41.03179 11.49831 37941 ft 440 kts 337°
2026-05-06 06:30 41.09525 11.47049 37942 ft 440 kts 337°
2026-05-06 06:31 41.15439 11.44450 37943 ft 440 kts 337°
2026-05-06 06:31 41.21455 11.41800 37944 ft 440 kts 337°